Weather History for Miami, FL

Change the Weather History Date:

Thursday, July 18, 2013

  Actual Average Record
Temperature  
Mean Temperature 78 °F 84 °F  
Max Temperature 83 °F 91 °F 95 °F (1981)
Min Temperature 73 °F 77 °F 69 °F (1929)
Degree Days  
Heating Degree Days 0 0  
Month to date heating degree days 0 0  
Since 1 June heating degree days 0 0  
Since 1 July heating degree days 0 0  
Cooling Degree Days 13 19  
Month to date cooling degree days 297 341  
Year to date cooling degree days 2290 2229  
Since 1 June cooling degree days 845 873  
Growing Degree Days 28 (Base 50)    
Moisture  
Dew Point 72 °F    
Average Humidity 82    
Maximum Humidity 94    
Minimum Humidity 69    
Precipitation  
Precipitation 1.82 in 0.17 in 2.48 in (1945)
Month to date precipitation 11.60 3.98  
Year to date precipitation 37.15 29.00  
Snow  
Snow 0.00 in - - ()
Month to date snowfall 0.0  
Since 1 June snowfall 0.0  
Since 1 July snowfall 0.0  
Snow Depth 0.00 in    
Sea Level Pressure  
Sea Level Pressure 30.11 in    
Wind  
Wind Speed 6 mph (East)    
Max Wind Speed 17 mph    
Max Gust Speed 26 mph    
Visibility 8 miles    
Events Fog , Rain , Thunderstorm    
T = Trace of Precipitation, MM = Missing Value Source: NWS Daily Summary

Daily Weather History Graph

Daily Weather History Graph

Search for Another Location

Airport:

Trip Planner

Search our weather history database for the weather conditions in past years. The results will help you decide how hot, cold, wet, or windy it might be!

Date:

Astronomy

Jul. 18, 2013 Rise Set
Actual Time 6:40 AM EDT 8:14 PM EDT
Civil Twilight 6:15 AM EDT 8:39 PM EDT
Nautical Twilight 5:45 AM EDT 9:09 PM EDT
Astronomical Twilight 5:13 AM EDT 9:41 PM EDT
Moon 4:11 PM EDT (7/18) 2:24 AM EDT (7/18)
Length of Visible Light 14h 23m
Length of Day
13h 33m
Waxing Gibbous, 77% of the Moon is Illuminated
Jul 18
Waxing Gibbous
Jul 22
Full
Jul 29
Last Quarter
Aug 6
New
Aug 14
First Quarter

Hourly Weather History & Observations

Time (EDT) Temp. Heat Index Dew Point Humidity Pressure Visibility Wind Dir Wind Speed Gust Speed Precip Events Conditions
12:53 AM 75.9 °F - 72.0 °F 87% 30.09 in 10.0 mi SE 4.6 mph - N/A   Scattered Clouds
1:53 AM 75.9 °F - 73.0 °F 91% 30.09 in 10.0 mi Calm Calm - N/A   Scattered Clouds
2:53 AM 75.0 °F - 72.0 °F 90% 30.08 in 10.0 mi Calm Calm - N/A   Scattered Clouds
3:53 AM 73.9 °F - 72.0 °F 93% 30.06 in 10.0 mi Calm Calm - N/A   Scattered Clouds
4:53 AM 75.0 °F - 73.0 °F 94% 30.07 in 10.0 mi Calm Calm - N/A   Mostly Cloudy
5:53 AM 75.0 °F - 73.0 °F 94% 30.08 in 10.0 mi NNE 3.5 mph - N/A   Mostly Cloudy
6:53 AM 75.0 °F - 73.0 °F 94% 30.10 in 10.0 mi Calm Calm - N/A   Mostly Cloudy
7:53 AM 77.0 °F - 73.0 °F 88% 30.10 in 10.0 mi NNE 4.6 mph - N/A   Mostly Cloudy
8:37 AM 77.0 °F - 73.4 °F 89% 30.12 in 10.0 mi South 5.8 mph - 0.01 in Thunderstorm Thunderstorm
8:47 AM 75.2 °F - 73.4 °F 94% 30.12 in 0.8 mi SE 3.5 mph - 0.01 in Rain , Thunderstorm Heavy Thunderstorms and Rain
8:53 AM 75.0 °F - 73.0 °F 94% 30.13 in 1.0 mi SSE 8.1 mph - 0.03 in Rain , Thunderstorm Heavy Thunderstorms and Rain
8:59 AM 75.2 °F - 71.6 °F 89% 30.14 in 0.5 mi SSE 16.1 mph 19.6 mph 0.00 in Fog , Rain , Thunderstorm Heavy Thunderstorms and Rain
9:05 AM 73.4 °F - 71.6 °F 94% 30.13 in 0.2 mi ESE 12.7 mph 19.6 mph 0.00 in Fog , Rain , Thunderstorm Heavy Thunderstorms and Rain
9:18 AM 73.4 °F - 71.6 °F 94% 30.13 in 1.5 mi ENE 8.1 mph - 0.00 in Rain , Thunderstorm Light Thunderstorms and Rain
9:26 AM 73.4 °F - 71.6 °F 94% 30.13 in 5.0 mi ENE 10.4 mph - 0.00 in Rain , Thunderstorm Light Thunderstorms and Rain
9:53 AM 73.9 °F - 71.1 °F 91% 30.13 in 10.0 mi ENE 13.8 mph - 0.00 in Thunderstorm Thunderstorm
10:25 AM 73.4 °F - 71.6 °F 94% 30.14 in 4.0 mi NE 5.8 mph - 0.02 in Rain Heavy Rain
10:53 AM 73.0 °F - 72.0 °F 96% 30.13 in 4.0 mi NE 5.8 mph - 0.02 in Rain Heavy Rain
11:02 AM 73.4 °F - 71.6 °F 94% 30.12 in 7.0 mi NE 8.1 mph - 0.00 in Rain Light Rain
11:53 AM 78.1 °F - 73.0 °F 84% 30.14 in 10.0 mi East 12.7 mph - 0.02 in   Mostly Cloudy
12:53 PM 80.1 °F 84.2 °F 73.0 °F 79% 30.13 in 10.0 mi ESE 10.4 mph - 0.01 in   Overcast
1:53 PM 82.0 °F 86.7 °F 72.0 °F 71% 30.12 in 10.0 mi East 10.4 mph - 0.00 in   Overcast
2:53 PM 82.0 °F 86.3 °F 71.1 °F 69% 30.10 in 10.0 mi ESE 6.9 mph - N/A   Overcast
3:53 PM 82.9 °F 90.8 °F 75.9 °F 79% 30.10 in 10.0 mi SSE 5.8 mph - N/A   Overcast
4:51 PM 75.2 °F - 69.8 °F 83% 30.10 in 10.0 mi West 15.0 mph 21.9 mph N/A   Overcast
4:53 PM 75.0 °F - 69.1 °F 82% 30.10 in 10.0 mi West 13.8 mph 21.9 mph N/A   Overcast
5:47 PM 75.2 °F - 71.6 °F 89% 30.10 in 10.0 mi NW 6.9 mph - 0.01 in   Overcast
5:53 PM 75.0 °F - 72.0 °F 90% 30.09 in 10.0 mi NNW 5.8 mph - 0.01 in   Overcast
6:53 PM 75.0 °F - 72.0 °F 90% 30.10 in 9.0 mi NE 6.9 mph - 0.01 in Rain Rain
7:53 PM 73.9 °F - 72.0 °F 93% 30.10 in 10.0 mi NNE 4.6 mph - 0.01 in Rain Light Rain
8:53 PM 75.0 °F - 72.0 °F 90% 30.11 in 10.0 mi ENE 6.9 mph - 0.00 in Rain Light Rain
9:53 PM 73.9 °F - 72.0 °F 93% 30.10 in 10.0 mi Calm Calm - 0.00 in   Overcast
10:53 PM 75.0 °F - 73.0 °F 94% 30.10 in 10.0 mi East 5.8 mph - N/A   Mostly Cloudy
11:53 PM 75.9 °F - 73.0 °F 91% 30.11 in 10.0 mi ESE 5.8 mph - N/A   Mostly Cloudy